Flag for Denmark Weather past 2 weeks in Copenhagen, Denmark

Now
55 °F

Clear.


Feels Like: 54 °F
Forecast: 56 / 65 °F
Wind: 6 mph from Southeast

Location: Koebenhavn-Kastrup Airport

Current Time: Aug 29, 2014 at 5:20:33 AM

Latest Report: Aug 29, 2014 at 4:50 AM


Visibility: 10 mi

Pressure: 29.98 "Hg

Humidity: 88%

Dew point: 52 °F

Location of CopenhagenLocation

Historic Weather in Copenhagen — Graph

°F

Copenhagen temperature yesterday

Maximum temperature yesterday: 70 °F (at 3:20 PM)
Minimum temperature yesterday: 48 °F (at 4:50 AM)
Average temperature yesterday: 60 °F

Past Weeks' High & Low Weather Summary

 TemperatureHumidityPressure
High73 °F (Aug 14, 2:20 PM)100% (Aug 17, 8:50 AM)30.01 "Hg (Aug 17, 8:50 AM)
Low48 °F (Aug 28, 4:50 AM)40% (Aug 27, 4:20 PM)29.36 "Hg (Aug 18, 2:20 PM)
Average59 °F74%29.75 "Hg
* Reported Aug 14 4:20 AM — Aug 29 4:20 AM, Copenhagen, Weather by CustomWeather, © 2014

Note: Actual official high and low records may vary slightly from our data, if they occured in-between our weather recording intervals... More about our weather records

Advertising

Copenhagen weather history for previous 24 hours

 ConditionsComfort  
Time TempWeatherWind HumidityBarometerVisibility
4:20 AM
Aug 29
55 °FClear.6 mph82%29.98 "Hg10 mi
3:20 AM54 °FClear.5 mph88%29.98 "Hg10 mi
2:50 AM54 °FClear.3 mph88%29.98 "Hg10 mi
2:20 AM54 °FClear.3 mph88%30.01 "Hg10 mi
1:50 AM57 °FClear.3 mph82%30.01 "Hg10 mi
1:20 AM55 °FClear.3 mph88%30.01 "Hg10 mi
12:50 AM55 °FClear.2 mph88%30.01 "Hg10 mi
12:20 AM57 °FClear.3 mph82%30.01 "Hg10 mi
11:50 PM
Aug 28
59 °FClear.3 mph82%30.01 "Hg10 mi
11:20 PM59 °FClear.3 mph77%30.01 "Hg10 mi
10:50 PM59 °FClear.5 mph77%30.01 "Hg10 mi
10:20 PM57 °FClear.5 mph82%30.01 "Hg10 mi
9:50 PM59 °FClear.5 mph82%30.01 "Hg10 mi
9:20 PM59 °FClear.5 mph82%30.01 "Hg10 mi
8:50 PM57 °FSunny.6 mph88%30.01 "Hg10 mi
8:20 PM61 °FSunny.5 mph77%30.01 "Hg10 mi
7:50 PM61 °FSunny.5 mph77%30.01 "Hg10 mi
7:20 PM63 °FPassing clouds.5 mph73%30.01 "HgN/A
6:50 PM63 °FPassing clouds.7 mph77%30.01 "HgN/A
6:20 PM64 °FPassing clouds.7 mph73%30.01 "HgN/A
5:50 PM64 °FPassing clouds.8 mph73%30.01 "HgN/A
5:20 PM66 °FPassing clouds.7 mph64%30.01 "HgN/A
4:50 PM64 °FPassing clouds.6 mph68%30.01 "HgN/A
4:20 PM66 °FPassing clouds.8 mph64%30.01 "HgN/A
3:50 PM64 °FPassing clouds.9 mph68%30.01 "HgN/A
3:20 PM70 °FPassing clouds.7 mph46%30.01 "HgN/A
2:50 PM68 °FSunny.3 mph46%30.01 "Hg10 mi
2:20 PM68 °FPassing clouds.6 mph46%30.01 "HgN/A
1:50 PM68 °FPassing clouds.7 mph46%30.01 "HgN/A
1:20 PM68 °FPassing clouds.7 mph53%30.01 "HgN/A
12:50 PM66 °FPassing clouds.9 mph52%30.01 "HgN/A
12:20 PM68 °FPassing clouds.8 mph49%30.01 "HgN/A
11:50 AM66 °FPassing clouds.9 mph49%30.01 "HgN/A
11:20 AM66 °FPassing clouds.6 mph56%30.01 "HgN/A
10:50 AM64 °FPassing clouds.8 mph60%30.01 "HgN/A
10:20 AM63 °FPassing clouds.6 mph68%30.01 "HgN/A
9:20 AM61 °FPassing clouds.8 mph77%30.01 "HgN/A
8:50 AM59 °FPassing clouds.8 mph82%30.01 "HgN/A
8:20 AM59 °FPassing clouds.7 mph88%30.01 "HgN/A
7:50 AM57 °FScattered clouds.6 mph94%30.01 "HgN/A
7:20 AM55 °FPartly sunny.6 mph94%30.01 "HgN/A
6:50 AM52 °FPassing clouds.5 mph100%30.01 "HgN/A
6:20 AM52 °FPartly cloudy.7 mph100%30.01 "HgN/A
5:50 AM52 °FPassing clouds.5 mph100%29.98 "Hg6 mi
5:20 AM52 °FPassing clouds.5 mph100%29.98 "HgN/A
Weather by CustomWeather, © 2014

See weather overviewHow to use our weather pages